KD2GO Weather Reports


Display with metric or nautical units.
time (UTC)temp
F
wind
direction
speed
MPH
gust
MPH
rain 1hr
in
rain 24hr
in
rain mn
in
humidity
%
barometer
mb
20260503231500 56 321 3.0 9.0 0.00 0.00 0.00 40 1010.9
20260503225959 56 262 3.0 9.0 0.00 0.00 0.00 38 1010.9
20260503224459 57 275 7.0 13.0 0.00 0.00 0.00 35 1010.8
20260503222958 58 290 6.0 15.0 0.00 0.00 0.00 34 1010.7
20260503221459 58 290 7.0 19.0 0.00 0.00 0.00 35 1010.7
20260503215959 58 288 6.0 14.0 0.00 0.00 0.00 34 1010.5
20260503213000 58 278 5.0 14.0 0.00 0.00 0.00 33 1010.5
20260503211500 57 333 6.0 14.0 0.00 0.00 0.00 35 1010.5
20260503205959 57 279 7.0 17.0 0.00 0.00 0.00 34 1010.5
20260503204458 57 292 8.0 18.0 0.00 0.00 0.00 34 1010.4
20260503202958 56 352 8.0 19.0 0.00 0.00 0.00 35 1010.6
20260503201458 56 261 6.0 15.0 0.00 0.00 0.00 38 1010.7
20260503194458 56 268 5.0 12.0 0.00 0.00 0.00 37 1011.0
20260503192959 55 287 8.0 18.0 0.00 0.00 0.00 38 1011.1
20260503190001 55 252 9.0 19.0 0.00 0.00 0.00 35 1011.3
20260503184459 55 311 8.0 19.0 0.00 0.00 0.00 36 1011.2
20260503182958 53 231 8.0 16.0 0.00 0.00 0.00 38 1011.3
20260503181500 54 294 9.0 22.0 0.00 0.00 0.00 36 1011.4
20260503174458 52 312 7.0 18.0 0.00 0.00 0.00 38 1011.6
20260503172958 52 269 7.0 14.0 0.00 0.00 0.00 41 1011.7
20260503171458 52 342 6.0 12.0 0.00 0.00 0.00 40 1011.9
20260503081457 43 261 2.0 6.0 0.00 0.01 0.00 61 1010.4
20260503071456 44 77 2.0 6.0 0.00 0.01 0.00 59 1010.2
20260503054458 45 309 1.0 4.0 0.00 0.01 0.00 59 1010.6
20260503052957 45 150 1.0 3.0 0.00 0.01 0.00 58 1010.7
20260503051457 46 283 2.0 7.0 0.00 0.01 0.00 58 1010.8
20260503050001 46 271 2.0 6.0 0.00 0.01 0.00 57 1010.9
20260503044500 46 251 3.0 5.0 0.00 0.01 0.00 57 1011.0
20260503043000 46 264 2.0 5.0 0.00 0.01 0.00 57 1011.3
20260503041500 46 322 2.0 4.0 0.00 0.01 0.00 56 1011.4
20260503035959 46 326 2.0 4.0 0.00 0.01 0.01 55 1011.3
20260503034500 46 234 1.0 3.0 0.00 0.01 0.01 56 1011.3
20260503032959 46 339 0.0 4.0 0.00 0.01 0.01 56 1011.3
20260503031459 47 292 0.0 2.0 0.00 0.01 0.01 54 1011.3
20260503030000 47 300 1.0 6.0 0.00 0.01 0.01 53 1011.4
20260503024459 48 276 2.0 10.0 0.00 0.01 0.01 52 1011.3
20260503022959 48 313 2.0 6.0 0.00 0.01 0.01 52 1011.4
20260503021500 48 311 1.0 5.0 0.00 0.01 0.01 53 1011.4
20260503020002 48 287 1.0 4.0 0.00 0.01 0.01 53 1011.5
20260503014501 49 267 3.0 7.0 0.00 0.01 0.01 50 1011.4
20260503013001 50 304 2.0 6.0 0.00 0.01 0.01 50 1011.4
20260503010001 50 285 3.0 7.0 0.00 0.01 0.01 47 1011.2
20260503004459 50 297 3.0 6.0 0.00 0.01 0.01 48 1011.0
20260503003000 50 287 2.0 6.0 0.00 0.01 0.01 48 1010.9
20260503001500 51 314 1.0 5.0 0.00 0.01 0.01 48 1010.7
20260502235959 52 302 2.0 4.0 0.00 0.01 0.01 47 1010.6
20260502234459 52 290 2.0 5.0 0.00 0.01 0.01 45 1010.5
20260502233000 52 300 3.0 7.0 0.00 0.01 0.01 44 1010.5